Simultaneous Nadir Overpasses (SNOs) Predictions

Prediction of SNOs between METOP-C and LANDSAT-8 Satellite Orbit:

Table of predicted SNOs for the next 14.0 days since TLE Epoch: 10/23/2021
Index Date (METOP-C) Time (METOP-C) Lat,Lon (METOP-C) SZA (METOP-C ) Date (LANDSAT-8) Time (LANDSAT-8) Lat,Lon (LANDSAT-8) SZA (LANDSAT-8 ) Distance(km) Time Diff (sec)
1 10/23/2021 13:35:42 -81.07,-164.92 85.03 10/23/2021 13:36:31 -81.07,-164.89 85.00 0.62 49
2 10/23/2021 14:26:19 81.11, 3.37 95.12 10/23/2021 14:25:56 81.11, 3.25 95.09 2.17 23
3 10/26/2021 09:10:05 -81.09, -98.18 84.01 10/26/2021 09:10:46 -81.08, -98.34 84.01 2.87 41
4 10/26/2021 10:00:43 81.11, 69.73 96.08 10/26/2021 10:00:11 81.11, 69.77 96.08 0.97 32
5 10/29/2021 04:44:29 -81.08, -31.83 83.07 10/29/2021 04:45:01 -81.09, -31.84 83.06 0.22 32
6 10/29/2021 05:35:08 81.09, 135.69 96.97 10/29/2021 05:34:27 81.09, 135.88 96.97 3.34 41
7 11/01/2021 00:18:52 -81.08, 34.49 82.17 11/01/2021 00:19:15 -81.09, 34.62 82.14 2.34 23
8 11/01/2021 01:09:29 81.11,-157.24 97.97 11/01/2021 01:08:40 81.11,-157.32 97.94 1.40 49
9 11/03/2021 19:53:15 -81.09, 101.16 81.25 11/03/2021 19:53:30 -81.09, 101.04 81.26 2.20 15



Historial Predications of SNOs between METOP-C and LANDSAT-8
